| time (UTC) | temp F | wind direction | speed knots | gust knots | rain 1hr in | rain 24hr in | rain mn in | humidity % | barometer mb |
| 20260503225503 | 69 | 81 | 3.5 | 8.7 | 0.00 | 0.00 | 0.00 | 30 | 1001.8 |
| 20260503225001 | 70 | 110 | 1.7 | 7.8 | 0.00 | 0.00 | 0.00 | 31 | 1002.1 |
| 20260503223503 | 68 | 114 | 0.9 | 9.6 | 0.00 | 0.00 | 0.00 | 33 | 1002.3 |
| 20260503223001 | 69 | 137 | 7.8 | 9.6 | 0.00 | 0.00 | 0.00 | 31 | 1002.3 |
| 20260503222500 | 68 | 138 | 2.6 | 10.4 | 0.00 | 0.00 | 0.00 | 31 | 1002.6 |
| 20260503222003 | 68 | 53 | 1.7 | 10.4 | 0.00 | 0.00 | 0.00 | 32 | 1002.5 |
| 20260503221503 | 67 | 139 | 3.5 | 8.7 | 0.00 | 0.00 | 0.00 | 33 | 1002.7 |
| 20260503221002 | 67 | 194 | 0.9 | 9.6 | 0.00 | 0.00 | 0.00 | 32 | 1002.7 |
| 20260503220503 | 68 | 120 | 6.1 | 9.6 | 0.00 | 0.00 | 0.00 | 31 | 1002.8 |
| 20260503220003 | 68 | 191 | 3.5 | 9.6 | 0.00 | 0.00 | 0.00 | 30 | 1002.8 |
| 20260503215502 | 69 | 73 | 1.7 | 7.8 | 0.00 | 0.00 | 0.00 | 30 | 1003.0 |
| 20260503215003 | 70 | 72 | 3.5 | 7.8 | 0.00 | 0.00 | 0.00 | 28 | 1003.2 |
| 20260503214004 | 68 | 156 | 1.7 | 11.3 | 0.00 | 0.00 | 0.00 | 28 | 1003.3 |
| 20260503213505 | 68 | 94 | 4.3 | 11.3 | 0.00 | 0.00 | 0.00 | 27 | 1003.7 |
| 20260503213001 | 68 | 149 | 2.6 | 9.6 | 0.00 | 0.00 | 0.00 | 27 | 1003.6 |
| 20260503212500 | 68 | 110 | 3.5 | 8.7 | 0.00 | 0.00 | 0.00 | 28 | 1004.1 |
| 20260503212000 | 69 | 96 | 0.9 | 7.0 | 0.00 | 0.00 | 0.00 | 28 | 1004.0 |
| 20260503211503 | 69 | 110 | 2.6 | 7.8 | 0.00 | 0.00 | 0.00 | 28 | 1004.1 |
| 20260503211002 | 69 | 117 | 1.7 | 9.6 | 0.00 | 0.00 | 0.00 | 30 | 1004.1 |
| 20260503210501 | 68 | 122 | 3.5 | 9.6 | 0.00 | 0.00 | 0.00 | 28 | 1004.4 |
| 20260503210003 | 68 | 36 | 1.7 | 7.0 | 0.00 | 0.00 | 0.00 | 29 | 1004.4 |
| 20260503205501 | 66 | 134 | 7.0 | 7.0 | 0.00 | 0.00 | 0.00 | 29 | 1004.5 |
| 20260503204503 | 67 | 53 | 1.7 | 7.8 | 0.00 | 0.00 | 0.00 | 30 | 1004.6 |
| 20260503204001 | 68 | 159 | 1.7 | 7.8 | 0.00 | 0.00 | 0.00 | 30 | 1004.6 |
| 20260503203456 | 68 | 65 | 1.7 | 8.7 | 0.00 | 0.00 | 0.00 | 29 | 1004.5 |
| 20260503202956 | 68 | 173 | 3.5 | 8.7 | 0.00 | 0.00 | 0.00 | 28 | 1004.7 |
| 20260503202456 | 69 | 62 | 2.6 | 7.0 | 0.00 | 0.00 | 0.00 | 29 | 1004.6 |
| 20260503202001 | 67 | 150 | 1.7 | 7.0 | 0.00 | 0.00 | 0.00 | 30 | 1005.0 |
| 20260503200953 | 67 | 132 | 3.5 | 7.8 | 0.00 | 0.00 | 0.00 | 31 | 1005.0 |
| 20260503200454 | 67 | 64 | 2.6 | 7.8 | 0.00 | 0.00 | 0.00 | 31 | 1005.3 |
| 20260503195952 | 67 | 86 | 2.6 | 7.0 | 0.00 | 0.00 | 0.00 | 29 | 1005.3 |
| 20260503195454 | 67 | 132 | 1.7 | 13.0 | 0.00 | 0.00 | 0.00 | 31 | 1005.5 |
| 20260503194952 | 67 | 154 | 1.7 | 13.0 | 0.00 | 0.00 | 0.00 | 31 | 1005.7 |
| 20260503194453 | 67 | 110 | 1.7 | 7.8 | 0.00 | 0.00 | 0.00 | 30 | 1005.9 |
| 20260503193453 | 67 | 74 | 2.6 | 9.6 | 0.00 | 0.00 | 0.00 | 30 | 1005.9 |
| 20260503192953 | 66 | 180 | 0.9 | 6.1 | 0.00 | 0.00 | 0.00 | 31 | 1006.1 |
| 20260503192453 | 67 | 139 | 3.5 | 7.0 | 0.00 | 0.00 | 0.00 | 32 | 1006.0 |
| 20260503191951 | 66 | 170 | 2.6 | 8.7 | 0.00 | 0.00 | 0.00 | 32 | 1006.4 |
| 20260503190448 | 65 | 134 | 4.3 | 13.0 | 0.00 | 0.00 | 0.00 | 31 | 1006.7 |
| 20260503185950 | 64 | 166 | 1.7 | 8.7 | 0.00 | 0.00 | 0.00 | 33 | 1007.0 |
| 20260503185437 | 64 | 108 | 5.2 | 8.7 | 0.00 | 0.00 | 0.00 | 31 | 1006.7 |
| 20260503184939 | 64 | 157 | 3.5 | 8.7 | 0.00 | 0.00 | 0.00 | 32 | 1006.9 |
| 20260503183932 | 65 | 168 | 3.5 | 8.7 | 0.00 | 0.00 | 0.00 | 31 | 1007.1 |
| 20260503183432 | 64 | 197 | 3.5 | 7.0 | 0.00 | 0.00 | 0.00 | 31 | 1007.2 |
| 20260503182931 | 64 | 76 | 2.6 | 7.0 | 0.00 | 0.00 | 0.00 | 33 | 1007.3 |
| 20260503182434 | 64 | 191 | 3.5 | 11.3 | 0.00 | 0.00 | 0.00 | 32 | 1007.4 |
| 20260503181933 | 64 | 139 | 1.7 | 11.3 | 0.00 | 0.00 | 0.00 | 35 | 1007.4 |
| 20260503181431 | 64 | 130 | 1.7 | 7.0 | 0.00 | 0.00 | 0.00 | 34 | 1007.4 |
| 20260503180931 | 63 | 85 | 1.7 | 10.4 | 0.00 | 0.00 | 0.00 | 34 | 1007.5 |
| 20260503180433 | 62 | 159 | 2.6 | 10.4 | 0.00 | 0.00 | 0.00 | 34 | 1007.8 |
| 20260503175932 | 64 | 150 | 2.6 | 7.0 | 0.00 | 0.00 | 0.00 | 35 | 1007.9 |
| 20260503175432 | 61 | 132 | 1.7 | 7.0 | 0.00 | 0.00 | 0.00 | 33 | 1007.8 |
| 20260503174931 | 62 | 135 | 2.6 | 7.0 | 0.00 | 0.00 | 0.00 | 34 | 1007.7 |
| 20260503174432 | 62 | 110 | 1.7 | 5.2 | 0.00 | 0.00 | 0.00 | 34 | 1007.9 |
| 20260503173932 | 62 | 132 | 1.7 | 8.7 | 0.00 | 0.00 | 0.00 | 34 | 1008.4 |
| 20260503173432 | 60 | 85 | 1.7 | 9.6 | 0.00 | 0.00 | 0.00 | 36 | 1008.3 |
| 20260503172933 | 62 | 164 | 4.3 | 9.6 | 0.00 | 0.00 | 0.00 | 33 | 1008.2 |
| 20260503172432 | 61 | 160 | 2.6 | 7.0 | 0.00 | 0.00 | 0.00 | 36 | 1008.3 |
| 20260503171932 | 61 | 117 | 3.5 | 7.0 | 0.00 | 0.00 | 0.00 | 34 | 1008.2 |
| 20260503171430 | 61 | 135 | 2.6 | 8.7 | 0.00 | 0.00 | 0.00 | 35 | 1008.5 |
| 20260503170929 | 60 | 112 | 6.1 | 8.7 | 0.00 | 0.00 | 0.00 | 36 | 1008.5 |
| 20260503170430 | 60 | 341 | 2.6 | 6.1 | 0.00 | 0.00 | 0.00 | 37 | 1008.5 |
| 20260503150901 | 55 | 210 | 2.6 | 7.0 | 0.00 | 0.00 | 0.00 | 37 | 1009.5 |
| 20260503150403 | 55 | 148 | 1.7 | 7.0 | 0.00 | 0.00 | 0.00 | 38 | 1009.4 |
| 20260503130902 | 48 | 173 | 0.9 | 5.2 | 0.00 | 0.00 | 0.00 | 57 | 1009.2 |
| 20260503130400 | 47 | 126 | 0.9 | 5.2 | 0.00 | 0.00 | 0.00 | 58 | 1009.2 |
| 20260503090305 | 41 | 111 | 0.0 | 1.7 | 0.00 | 0.00 | 0.00 | 89 | 1007.8 |
| 20260503081216 | 38 | 114 | 0.0 | 0.0 | 0.00 | 0.00 | 0.00 | 96 | 1007.8 |
| 20260503080203 | 38 | 114 | 0.0 | 0.9 | 0.00 | 0.00 | 0.00 | 95 | 1007.6 |
| 20260503072705 | 38 | 69 | 0.0 | 1.7 | 0.00 | 0.00 | 0.00 | 94 | 1007.5 |
| 20260503072204 | 39 | 131 | 0.0 | 1.7 | 0.00 | 0.00 | 0.00 | 94 | 1007.7 |
| 20260503071704 | 39 | 105 | 0.0 | 1.7 | 0.00 | 0.00 | 0.00 | 94 | 1007.5 |
| 20260503071205 | 40 | 157 | 0.0 | 0.0 | 0.00 | 0.00 | 0.00 | 94 | 1007.5 |
| 20260503070703 | 39 | 157 | 0.0 | 0.0 | 0.00 | 0.00 | 0.00 | 94 | 1007.6 |
| 20260503070200 | 39 | 157 | 0.0 | 0.9 | 0.00 | 0.00 | 0.00 | 93 | 1007.5 |
| 20260503060204 | 42 | 157 | 0.0 | 0.0 | 0.00 | 0.00 | 0.00 | 88 | 1007.9 |
| 20260503054703 | 43 | 157 | 0.0 | 0.9 | 0.00 | 0.00 | 0.00 | 85 | 1007.9 |
| 20260503054205 | 43 | 157 | 0.0 | 0.9 | 0.00 | 0.00 | 0.00 | 84 | 1007.9 |
| 20260503053204 | 44 | 74 | 0.0 | 0.9 | 0.00 | 0.00 | 0.00 | 83 | 1007.6 |
| 20260503052200 | 44 | 151 | 0.0 | 0.0 | 0.00 | 0.00 | 0.00 | 81 | 1007.5 |
| 20260503051201 | 45 | 151 | 0.0 | 0.0 | 0.00 | 0.00 | 0.00 | 79 | 1007.6 |
| 20260503050702 | 46 | 151 | 0.0 | 0.9 | 0.00 | 0.00 | 0.00 | 79 | 1007.5 |
| 20260503050203 | 46 | 151 | 0.0 | 0.9 | 0.00 | 0.00 | 0.00 | 78 | 1007.9 |
| 20260503045701 | 47 | 151 | 0.0 | 0.9 | 0.00 | 0.00 | 0.00 | 77 | 1007.7 |
| 20260503045200 | 48 | 40 | 0.0 | 1.7 | 0.00 | 0.00 | 0.00 | 76 | 1007.5 |
| 20260503044705 | 49 | 353 | 0.0 | 2.6 | 0.00 | 0.00 | 0.00 | 75 | 1007.6 |
| 20260503044205 | 49 | 289 | 0.0 | 2.6 | 0.00 | 0.00 | 0.00 | 75 | 1007.8 |
| 20260503043732 | 47 | 279 | 0.0 | 0.0 | 0.00 | 0.00 | 0.00 | 77 | 1007.8 |
| 20260503043204 | 47 | 166 | 0.0 | 0.9 | 0.00 | 0.00 | 0.00 | 76 | 1007.8 |
| 20260503042203 | 49 | 120 | 0.0 | 2.6 | 0.00 | 0.00 | 0.00 | 73 | 1007.5 |
| 20260503041200 | 49 | 246 | 0.0 | 1.7 | 0.00 | 0.00 | 0.00 | 71 | 1007.4 |
| 20260503040720 | 49 | 99 | 0.0 | 0.9 | 0.00 | 0.00 | 0.00 | 71 | 1007.5 |
| 20260503040201 | 49 | 99 | 0.0 | 0.9 | 0.00 | 0.00 | 0.00 | 70 | 1007.6 |
| 20260503035701 | 50 | 279 | 0.0 | 0.0 | 0.00 | 0.00 | 0.00 | 68 | 1007.9 |
| 20260503035200 | 50 | 279 | 0.0 | 0.0 | 0.00 | 0.00 | 0.00 | 67 | 1007.7 |
| 20260503034704 | 51 | 279 | 0.0 | 0.0 | 0.00 | 0.00 | 0.00 | 65 | 1007.7 |
| 20260503034205 | 51 | 279 | 0.0 | 0.0 | 0.00 | 0.00 | 0.00 | 65 | 1007.6 |
| 20260503033710 | 51 | 180 | 0.0 | 0.9 | 0.00 | 0.00 | 0.00 | 66 | 1007.7 |
| 20260503033205 | 51 | 180 | 0.0 | 0.9 | 0.00 | 0.00 | 0.00 | 66 | 1007.6 |
| 20260503032705 | 51 | 154 | 0.0 | 0.9 | 0.00 | 0.00 | 0.00 | 66 | 1008.0 |
| 20260503032205 | 52 | 180 | 0.0 | 0.0 | 0.00 | 0.00 | 0.00 | 62 | 1007.8 |
| 20260503031703 | 53 | 180 | 0.0 | 0.9 | 0.00 | 0.00 | 0.00 | 60 | 1007.6 |
| 20260503031204 | 54 | 180 | 0.0 | 1.7 | 0.00 | 0.00 | 0.00 | 58 | 1007.6 |
| 20260503030206 | 55 | 7 | 0.0 | 5.2 | 0.00 | 0.00 | 0.00 | 54 | 1007.4 |
| 20260503025703 | 54 | 276 | 0.9 | 5.2 | 0.00 | 0.00 | 0.00 | 56 | 1007.3 |
| 20260503025204 | 53 | 336 | 0.0 | 4.3 | 0.00 | 0.00 | 0.00 | 59 | 1007.4 |
| 20260503024705 | 54 | 286 | 0.0 | 3.5 | 0.00 | 0.00 | 0.00 | 58 | 1007.3 |
| 20260503024206 | 54 | 327 | 1.7 | 2.6 | 0.00 | 0.00 | 0.00 | 58 | 1007.7 |
| 20260503023658 | 53 | 81 | 0.0 | 2.6 | 0.00 | 0.00 | 0.00 | 58 | 1007.6 |
| 20260503023156 | 53 | 0 | 0.0 | 1.7 | 0.00 | 0.00 | 0.00 | 59 | 1007.5 |
| 20260503022653 | 54 | 7 | 0.0 | 1.7 | 0.00 | 0.00 | 0.00 | 59 | 1007.3 |
| 20260503022149 | 54 | 315 | 0.0 | 1.7 | 0.00 | 0.00 | 0.00 | 57 | 1007.4 |
| 20260503021645 | 54 | 340 | 0.0 | 1.7 | 0.00 | 0.00 | 0.00 | 57 | 1007.1 |
| 20260503021144 | 54 | 0 | 0.0 | 1.7 | 0.00 | 0.00 | 0.00 | 56 | 1007.5 |
| 20260503020644 | 54 | 0 | 0.0 | 1.7 | 0.00 | 0.00 | 0.00 | 58 | 1007.6 |
| 20260503020138 | 54 | 300 | 0.0 | 1.7 | 0.00 | 0.00 | 0.00 | 58 | 1007.3 |
| 20260503015632 | 54 | 307 | 0.0 | 1.7 | 0.00 | 0.00 | 0.00 | 58 | 1007.4 |
| 20260503015133 | 54 | 0 | 0.0 | 1.7 | 0.00 | 0.00 | 0.00 | 57 | 1007.3 |
| 20260503014630 | 55 | 0 | 0.0 | 0.0 | 0.00 | 0.00 | 0.00 | 56 | 1007.5 |
| 20260503014129 | 55 | 0 | 0.0 | 0.9 | 0.00 | 0.00 | 0.00 | 57 | 1007.3 |
| 20260503013629 | 55 | 0 | 0.0 | 0.9 | 0.00 | 0.00 | 0.00 | 56 | 1007.4 |
| 20260503012628 | 56 | 254 | 0.0 | 0.9 | 0.00 | 0.00 | 0.00 | 55 | 1007.3 |
| 20260503012130 | 56 | 0 | 0.0 | 1.7 | 0.00 | 0.00 | 0.00 | 55 | 1007.6 |
| 20260503011630 | 56 | 0 | 0.0 | 1.7 | 0.00 | 0.00 | 0.00 | 54 | 1007.3 |
| 20260503011129 | 56 | 15 | 0.0 | 1.7 | 0.00 | 0.00 | 0.00 | 54 | 1007.2 |
| 20260503010630 | 56 | 352 | 0.0 | 1.7 | 0.00 | 0.00 | 0.00 | 55 | 1007.3 |
| 20260503005629 | 57 | 306 | 0.9 | 1.7 | 0.00 | 0.00 | 0.00 | 53 | 1007.3 |
| 20260503005128 | 57 | 350 | 0.0 | 1.7 | 0.00 | 0.00 | 0.00 | 53 | 1007.4 |
| 20260503004628 | 57 | 340 | 0.0 | 2.6 | 0.00 | 0.00 | 0.00 | 53 | 1007.4 |
| 20260503004129 | 57 | 286 | 0.9 | 2.6 | 0.00 | 0.00 | 0.00 | 53 | 1007.7 |
| 20260503003630 | 58 | 254 | 0.0 | 2.6 | 0.00 | 0.00 | 0.00 | 53 | 1007.6 |
| 20260503003129 | 58 | 323 | 0.0 | 3.5 | 0.00 | 0.00 | 0.00 | 52 | 1007.5 |
| 20260503002629 | 58 | 325 | 0.0 | 3.5 | 0.00 | 0.00 | 0.00 | 52 | 1007.6 |
| 20260503002129 | 58 | 340 | 0.0 | 3.5 | 0.00 | 0.00 | 0.00 | 52 | 1007.4 |
| 20260503000632 | 58 | 283 | 0.0 | 3.5 | 0.00 | 0.00 | 0.00 | 53 | 1007.9 |
| 20260503000132 | 58 | 270 | 0.0 | 2.6 | 0.00 | 0.00 | 0.00 | 53 | 1008.0 |
| 20260502235633 | 58 | 279 | 0.0 | 2.6 | 0.00 | 0.00 | 0.00 | 54 | 1007.8 |
| 20260502235133 | 58 | 341 | 0.0 | 2.6 | 0.00 | 0.00 | 0.00 | 53 | 1008.0 |
| 20260502234631 | 58 | 339 | 1.7 | 2.6 | 0.00 | 0.00 | 0.00 | 52 | 1008.0 |
| 20260502234131 | 58 | 345 | 0.9 | 1.7 | 0.00 | 0.00 | 0.00 | 53 | 1008.1 |
| 20260502233129 | 58 | 345 | 0.9 | 3.5 | 0.00 | 0.00 | 0.00 | 52 | 1008.4 |
| 20260502232629 | 58 | 292 | 1.7 | 3.5 | 0.00 | 0.00 | 0.00 | 50 | 1008.4 |
| 20260502231630 | 58 | 277 | 0.9 | 3.5 | 0.00 | 0.00 | 0.00 | 56 | 1008.8 |
| 20260502230630 | 58 | 330 | 1.7 | 3.5 | 0.00 | 0.00 | 0.00 | 56 | 1008.9 |
| 20260502230130 | 58 | 249 | 0.0 | 2.6 | 0.00 | 0.00 | 0.00 | 57 | 1008.8 |